| time (UTC) | temp F | wind direction | speed MPH | gust MPH | rain 1hr in | rain 24hr in | rain mn in | humidity % | barometer mb |
| 20260508202626 | 56 | 38 | 0.0 | 3.0 | 0.00 | 0.00 | 0.00 | 74 | 1016.5 |
| 20260508201626 | 56 | 38 | 0.0 | 1.0 | 0.00 | 0.00 | 0.00 | 73 | 1016.4 |
| 20260508200625 | 57 | 47 | 0.0 | 3.0 | 0.00 | 0.00 | 0.00 | 72 | 1016.2 |
| 20260508195627 | 57 | 65 | 1.0 | 2.0 | 0.00 | 0.00 | 0.00 | 72 | 1016.1 |
| 20260508194627 | 57 | 29 | 1.0 | 3.0 | 0.00 | 0.00 | 0.00 | 71 | 1016.1 |
| 20260508193626 | 58 | 70 | 1.0 | 4.0 | 0.00 | 0.00 | 0.00 | 71 | 1016.0 |
| 20260508192626 | 58 | 43 | 1.0 | 5.0 | 0.00 | 0.00 | 0.00 | 70 | 1015.8 |
| 20260508191626 | 58 | 47 | 1.0 | 4.0 | 0.00 | 0.00 | 0.00 | 70 | 1015.7 |
| 20260508190626 | 59 | 84 | 1.0 | 5.0 | 0.00 | 0.00 | 0.00 | 69 | 1015.6 |
| 20260508185626 | 59 | 37 | 2.0 | 4.0 | 0.00 | 0.00 | 0.00 | 68 | 1015.4 |
| 20260508184626 | 60 | 53 | 2.0 | 5.0 | 0.00 | 0.00 | 0.00 | 67 | 1015.1 |
| 20260508183626 | 60 | 37 | 0.0 | 4.0 | 0.00 | 0.00 | 0.00 | 67 | 1015.1 |
| 20260508182625 | 61 | 41 | 2.0 | 5.0 | 0.00 | 0.00 | 0.00 | 66 | 1015.1 |
| 20260508181627 | 61 | 66 | 1.0 | 6.0 | 0.00 | 0.00 | 0.00 | 66 | 1014.9 |
| 20260508180627 | 62 | 49 | 2.0 | 7.0 | 0.00 | 0.00 | 0.00 | 64 | 1014.8 |
| 20260508175627 | 62 | 64 | 3.0 | 6.0 | 0.00 | 0.00 | 0.00 | 64 | 1014.6 |
| 20260508174627 | 63 | 47 | 3.0 | 10.0 | 0.00 | 0.00 | 0.00 | 62 | 1014.6 |
| 20260508173627 | 64 | 31 | 2.0 | 6.0 | 0.00 | 0.00 | 0.00 | 61 | 1014.4 |
| 20260508172627 | 64 | 78 | 2.0 | 7.0 | 0.00 | 0.00 | 0.00 | 61 | 1014.2 |
| 20260508171627 | 65 | 54 | 2.0 | 9.0 | 0.00 | 0.00 | 0.00 | 60 | 1014.2 |
| 20260508170626 | 65 | 37 | 2.0 | 10.0 | 0.00 | 0.00 | 0.00 | 58 | 1014.1 |
| 20260508165626 | 66 | 44 | 1.0 | 6.0 | 0.00 | 0.00 | 0.00 | 57 | 1014.1 |
| 20260508164626 | 67 | 18 | 0.0 | 2.0 | 0.00 | 0.00 | 0.00 | 54 | 1014.1 |
| 20260508163626 | 67 | 50 | 1.0 | 6.0 | 0.00 | 0.00 | 0.00 | 53 | 1014.1 |
| 20260508162626 | 67 | 65 | 4.0 | 7.0 | 0.00 | 0.00 | 0.00 | 53 | 1014.1 |
| 20260508161626 | 67 | 44 | 1.0 | 5.0 | 0.00 | 0.00 | 0.00 | 55 | 1014.1 |
| 20260508160626 | 67 | 54 | 1.0 | 5.0 | 0.00 | 0.00 | 0.00 | 56 | 1014.1 |
| 20260508155626 | 67 | 54 | 1.0 | 5.0 | 0.00 | 0.00 | 0.00 | 53 | 1014.1 |
| 20260508154625 | 68 | 358 | 2.0 | 5.0 | 0.00 | 0.00 | 0.00 | 52 | 1014.1 |
| 20260508153625 | 67 | 5 | 1.0 | 5.0 | 0.00 | 0.00 | 0.00 | 53 | 1014.1 |
| 20260508152625 | 67 | 43 | 2.0 | 5.0 | 0.00 | 0.00 | 0.00 | 54 | 1014.1 |
| 20260508151627 | 67 | 31 | 1.0 | 4.0 | 0.00 | 0.00 | 0.00 | 56 | 1014.3 |
| 20260508150627 | 67 | 59 | 1.0 | 6.0 | 0.00 | 0.00 | 0.00 | 56 | 1014.4 |
| 20260508145627 | 67 | 37 | 3.0 | 7.0 | 0.00 | 0.00 | 0.00 | 56 | 1014.6 |
| 20260508144627 | 68 | 87 | 2.0 | 5.0 | 0.00 | 0.00 | 0.00 | 55 | 1014.6 |
| 20260508143627 | 67 | 358 | 2.0 | 4.0 | 0.00 | 0.00 | 0.00 | 57 | 1014.8 |
| 20260508142627 | 68 | 18 | 1.0 | 5.0 | 0.00 | 0.00 | 0.00 | 58 | 1014.9 |
| 20260508141626 | 67 | 74 | 1.0 | 5.0 | 0.00 | 0.00 | 0.00 | 57 | 1014.9 |
| 20260508140626 | 66 | 2 | 1.0 | 7.0 | 0.00 | 0.00 | 0.00 | 62 | 1015.1 |
| 20260508135626 | 64 | 74 | 2.0 | 5.0 | 0.00 | 0.00 | 0.00 | 61 | 1015.3 |
| 20260508134626 | 65 | 27 | 2.0 | 4.0 | 0.00 | 0.00 | 0.00 | 61 | 1015.3 |
| 20260508133626 | 66 | 37 | 2.0 | 6.0 | 0.00 | 0.00 | 0.00 | 61 | 1015.3 |
| 20260508132626 | 65 | 64 | 1.0 | 4.0 | 0.00 | 0.00 | 0.00 | 65 | 1015.5 |
| 20260508131626 | 65 | 83 | 1.0 | 5.0 | 0.00 | 0.00 | 0.00 | 61 | 1015.5 |
| 20260508130625 | 67 | 59 | 2.0 | 9.0 | 0.00 | 0.00 | 0.00 | 60 | 1015.6 |
| 20260508125625 | 66 | 353 | 2.0 | 4.0 | 0.00 | 0.00 | 0.00 | 62 | 1015.7 |
| 20260508124625 | 65 | 67 | 4.0 | 8.0 | 0.00 | 0.00 | 0.00 | 62 | 1015.9 |
| 20260508123625 | 65 | 340 | 1.0 | 3.0 | 0.00 | 0.00 | 0.00 | 63 | 1015.9 |
| 20260508122625 | 65 | 42 | 0.0 | 2.0 | 0.00 | 0.00 | 0.00 | 63 | 1016.0 |
| 20260508121627 | 63 | 54 | 0.0 | 4.0 | 0.00 | 0.00 | 0.00 | 66 | 1016.1 |
| 20260508120629 | 64 | 60 | 2.0 | 6.0 | 0.00 | 0.00 | 0.00 | 63 | 1016.1 |
| 20260508115629 | 63 | 43 | 1.0 | 4.0 | 0.00 | 0.00 | 0.00 | 66 | 1016.3 |
| 20260508114629 | 64 | 55 | 3.0 | 8.0 | 0.00 | 0.00 | 0.00 | 65 | 1016.2 |
| 20260508113627 | 64 | 20 | 2.0 | 6.0 | 0.00 | 0.00 | 0.00 | 66 | 1016.2 |
| 20260508112627 | 63 | 56 | 3.0 | 4.0 | 0.00 | 0.00 | 0.00 | 65 | 1016.2 |
| 20260508111627 | 64 | 60 | 2.0 | 7.0 | 0.00 | 0.00 | 0.00 | 65 | 1016.3 |
| 20260508110627 | 62 | 18 | 2.0 | 3.0 | 0.00 | 0.00 | 0.00 | 69 | 1016.4 |
| 20260508105627 | 62 | 3 | 4.0 | 6.0 | 0.00 | 0.00 | 0.00 | 69 | 1016.5 |
| 20260508104629 | 61 | 20 | 1.0 | 4.0 | 0.00 | 0.00 | 0.00 | 70 | 1016.5 |
| 20260508103629 | 61 | 55 | 1.0 | 5.0 | 0.00 | 0.00 | 0.00 | 70 | 1016.7 |
| 20260508102628 | 60 | 2 | 1.0 | 6.0 | 0.00 | 0.00 | 0.00 | 74 | 1016.7 |
| 20260508101628 | 60 | 22 | 1.0 | 6.0 | 0.00 | 0.00 | 0.00 | 74 | 1016.9 |
| 20260508100628 | 60 | 60 | 1.0 | 7.0 | 0.00 | 0.00 | 0.00 | 74 | 1016.8 |
| 20260508095628 | 60 | 67 | 3.0 | 7.0 | 0.00 | 0.01 | 0.00 | 73 | 1016.9 |
| 20260508094628 | 59 | 61 | 1.0 | 5.0 | 0.00 | 0.01 | 0.00 | 75 | 1017.0 |
| 20260508093628 | 59 | 42 | 2.0 | 6.0 | 0.00 | 0.01 | 0.00 | 74 | 1017.0 |
| 20260508092628 | 59 | 51 | 2.0 | 4.0 | 0.00 | 0.01 | 0.00 | 76 | 1017.1 |
| 20260508091628 | 58 | 77 | 2.0 | 5.0 | 0.00 | 0.01 | 0.00 | 76 | 1017.1 |
| 20260508090628 | 57 | 329 | 2.0 | 4.0 | 0.00 | 0.01 | 0.00 | 78 | 1017.1 |
| 20260508085627 | 57 | 31 | 2.0 | 4.0 | 0.00 | 0.01 | 0.00 | 78 | 1017.1 |
| 20260508084627 | 57 | 33 | 2.0 | 5.0 | 0.00 | 0.01 | 0.00 | 78 | 1017.1 |
| 20260508083627 | 55 | 16 | 2.0 | 5.0 | 0.00 | 0.01 | 0.00 | 83 | 1016.9 |
| 20260508082627 | 54 | 65 | 2.0 | 9.0 | 0.00 | 0.01 | 0.00 | 85 | 1017.1 |
| 20260508081627 | 53 | 14 | 1.0 | 3.0 | 0.00 | 0.01 | 0.00 | 90 | 1017.1 |
| 20260508080629 | 51 | 31 | 1.0 | 4.0 | 0.00 | 0.01 | 0.00 | 91 | 1017.1 |
| 20260508075629 | 49 | 46 | 1.0 | 4.0 | 0.00 | 0.01 | 0.00 | 94 | 1017.2 |
| 20260508074628 | 48 | 34 | 0.0 | 5.0 | 0.00 | 0.01 | 0.00 | 95 | 1017.3 |
| 20260508073627 | 47 | 35 | 3.0 | 6.0 | 0.00 | 0.01 | 0.00 | 95 | 1017.3 |
| 20260508072628 | 47 | 45 | 1.0 | 4.0 | 0.00 | 0.01 | 0.00 | 96 | 1017.3 |
| 20260508071628 | 46 | 45 | 1.0 | 3.0 | 0.00 | 0.01 | 0.00 | 96 | 1017.4 |
| 20260508070628 | 46 | 55 | 3.0 | 5.0 | 0.00 | 0.01 | 0.00 | 96 | 1017.2 |
| 20260508065628 | 46 | 32 | 1.0 | 5.0 | 0.00 | 0.02 | 0.00 | 96 | 1017.2 |
| 20260508064628 | 45 | 37 | 2.0 | 4.0 | 0.00 | 0.02 | 0.00 | 96 | 1017.2 |
| 20260508063628 | 45 | 51 | 0.0 | 3.0 | 0.00 | 0.02 | 0.00 | 96 | 1017.1 |
| 20260508062627 | 45 | 67 | 2.0 | 5.0 | 0.00 | 0.02 | 0.00 | 95 | 1017.1 |
| 20260508061627 | 44 | 71 | 1.0 | 4.0 | 0.00 | 0.02 | 0.00 | 96 | 1016.9 |
| 20260508060627 | 44 | 16 | 1.0 | 3.0 | 0.00 | 0.02 | 0.00 | 96 | 1016.8 |
| 20260508055627 | 44 | 63 | 0.0 | 2.0 | 0.00 | 0.03 | 0.00 | 96 | 1016.8 |
| 20260508054627 | 44 | 62 | 0.0 | 2.0 | 0.00 | 0.03 | 0.00 | 95 | 1016.7 |
| 20260508053627 | 43 | 65 | 1.0 | 4.0 | 0.00 | 0.03 | 0.00 | 95 | 1016.7 |
| 20260508052627 | 43 | 37 | 0.0 | 1.0 | 0.00 | 0.03 | 0.00 | 95 | 1016.6 |
| 20260508051627 | 43 | 38 | 0.0 | 3.0 | 0.00 | 0.03 | 0.00 | 95 | 1016.8 |
| 20260508050627 | 43 | 41 | 2.0 | 2.0 | 0.00 | 0.03 | 0.00 | 95 | 1016.7 |
| 20260508045628 | 42 | 41 | 1.0 | 4.0 | 0.00 | 0.03 | 0.00 | 95 | 1016.6 |
| 20260508044628 | 42 | 20 | 2.0 | 5.0 | 0.00 | 0.03 | 0.00 | 95 | 1016.4 |
| 20260508043628 | 42 | 41 | 2.0 | 4.0 | 0.00 | 0.03 | 0.00 | 95 | 1016.3 |
| 20260508042628 | 42 | 29 | 1.0 | 3.0 | 0.00 | 0.03 | 0.00 | 94 | 1016.1 |
| 20260508041628 | 42 | 29 | 0.0 | 3.0 | 0.00 | 0.03 | 0.00 | 94 | 1016.1 |
| 20260508040628 | 42 | 30 | 1.0 | 4.0 | 0.00 | 0.03 | 0.00 | 94 | 1016.1 |
| 20260508035628 | 42 | 37 | 0.0 | 2.0 | 0.00 | 0.03 | 0.00 | 94 | 1016.0 |
| 20260508034628 | 42 | 37 | 0.0 | 1.0 | 0.00 | 0.03 | 0.00 | 94 | 1016.0 |
| 20260508033627 | 42 | 37 | 0.0 | 0.0 | 0.00 | 0.03 | 0.00 | 94 | 1015.9 |
| 20260508032627 | 42 | 37 | 0.0 | 4.0 | 0.00 | 0.03 | 0.00 | 94 | 1015.8 |
| 20260508031627 | 43 | 43 | 1.0 | 4.0 | 0.00 | 0.03 | 0.00 | 94 | 1015.8 |
| 20260508030628 | 43 | 38 | 1.0 | 3.0 | 0.00 | 0.03 | 0.00 | 94 | 1016.1 |
| 20260508025628 | 43 | 38 | 0.0 | 1.0 | 0.00 | 0.03 | 0.00 | 94 | 1015.9 |
| 20260508024628 | 43 | 38 | 0.0 | 3.0 | 0.00 | 0.03 | 0.00 | 93 | 1015.9 |
| 20260508023628 | 43 | 37 | 1.0 | 2.0 | 0.00 | 0.03 | 0.00 | 94 | 1015.9 |
| 20260508022628 | 43 | 37 | 1.0 | 2.0 | 0.00 | 0.03 | 0.00 | 94 | 1015.9 |
| 20260508021628 | 43 | 37 | 0.0 | 1.0 | 0.00 | 0.03 | 0.00 | 93 | 1016.0 |
| 20260508020627 | 43 | 37 | 1.0 | 2.0 | 0.00 | 0.03 | 0.00 | 93 | 1016.1 |
| 20260508015628 | 43 | 37 | 0.0 | 1.0 | 0.00 | 0.03 | 0.00 | 93 | 1016.1 |
| 20260508014628 | 44 | 37 | 0.0 | 2.0 | 0.00 | 0.03 | 0.00 | 93 | 1016.2 |
| 20260508013628 | 44 | 37 | 1.0 | 2.0 | 0.00 | 0.03 | 0.00 | 92 | 1016.1 |
| 20260508012628 | 44 | 35 | 1.0 | 4.0 | 0.00 | 0.03 | 0.00 | 93 | 1015.9 |
| 20260508011628 | 44 | 35 | 2.0 | 3.0 | 0.00 | 0.03 | 0.00 | 92 | 1015.9 |
| 20260508010628 | 44 | 41 | 0.0 | 2.0 | 0.00 | 0.03 | 0.00 | 92 | 1016.0 |
| 20260508005628 | 44 | 41 | 0.0 | 2.0 | 0.00 | 0.03 | 0.00 | 92 | 1016.1 |
| 20260508004628 | 45 | 41 | 0.0 | 2.0 | 0.00 | 0.03 | 0.00 | 91 | 1016.2 |
| 20260508003627 | 45 | 41 | 0.0 | 2.0 | 0.00 | 0.03 | 0.00 | 91 | 1016.3 |
| 20260508002627 | 45 | 41 | 0.0 | 2.0 | 0.00 | 0.03 | 0.00 | 91 | 1016.1 |
| 20260508001627 | 45 | 41 | 0.0 | 1.0 | 0.00 | 0.03 | 0.00 | 90 | 1016.1 |
| 20260508000627 | 45 | 41 | 0.0 | 0.0 | 0.00 | 0.03 | 0.00 | 90 | 1016.2 |
| 20260507235627 | 45 | 41 | 0.0 | 0.0 | 0.00 | 0.03 | 0.00 | 89 | 1016.3 |
| 20260507234627 | 46 | 41 | 0.0 | 1.0 | 0.00 | 0.03 | 0.00 | 89 | 1016.4 |
| 20260507233627 | 46 | 41 | 0.0 | 1.0 | 0.00 | 0.03 | 0.00 | 89 | 1016.4 |
| 20260507232627 | 46 | 41 | 0.0 | 0.0 | 0.00 | 0.03 | 0.00 | 89 | 1016.5 |
| 20260507231627 | 47 | 41 | 0.0 | 0.0 | 0.00 | 0.03 | 0.00 | 88 | 1016.6 |
| 20260507230627 | 47 | 41 | 0.0 | 1.0 | 0.00 | 0.03 | 0.00 | 88 | 1016.5 |
| 20260507225627 | 47 | 41 | 0.0 | 1.0 | 0.00 | 0.03 | 0.00 | 88 | 1016.6 |
| 20260507224626 | 47 | 41 | 0.0 | 1.0 | 0.00 | 0.03 | 0.00 | 88 | 1016.6 |
| 20260507223628 | 47 | 41 | 0.0 | 0.0 | 0.00 | 0.03 | 0.00 | 88 | 1016.7 |
| 20260507222628 | 47 | 41 | 0.0 | 0.0 | 0.00 | 0.03 | 0.00 | 88 | 1016.7 |
| 20260507221628 | 47 | 41 | 0.0 | 0.0 | 0.00 | 0.03 | 0.00 | 87 | 1016.9 |
| 20260507220628 | 47 | 41 | 0.0 | 0.0 | 0.00 | 0.03 | 0.00 | 87 | 1016.9 |
| 20260507215628 | 48 | 41 | 0.0 | 0.0 | 0.00 | 0.03 | 0.03 | 86 | 1016.8 |
| 20260507214628 | 48 | 41 | 0.0 | 0.0 | 0.00 | 0.03 | 0.03 | 86 | 1016.6 |
| 20260507213627 | 49 | 41 | 0.0 | 1.0 | 0.00 | 0.03 | 0.03 | 86 | 1016.6 |
| 20260507212627 | 49 | 41 | 1.0 | 4.0 | 0.00 | 0.03 | 0.03 | 85 | 1016.5 |
| 20260507211627 | 49 | 42 | 1.0 | 2.0 | 0.00 | 0.03 | 0.03 | 86 | 1016.4 |
| 20260507210627 | 49 | 39 | 2.0 | 5.0 | 0.00 | 0.03 | 0.03 | 86 | 1016.7 |
| 20260507205627 | 49 | 56 | 1.0 | 3.0 | 0.00 | 0.03 | 0.03 | 86 | 1016.7 |
| 20260507204627 | 49 | 46 | 3.0 | 5.0 | 0.00 | 0.03 | 0.03 | 86 | 1016.7 |
| 20260507203627 | 49 | 32 | 0.0 | 2.0 | 0.00 | 0.03 | 0.03 | 86 | 1016.5 |